T23 EFRO-EFRO

Flight info

Callsign T23
Flight time 1h 42m
Altitude 10000
Route JERJO SODANKYLA JERJO
Aircraft PC12/L-SDE2E3GHIJ1J3J4J5LM1ORWXYZ/H

Departure

Time 2026-04-28 16:23
Airport Rovaniemi Airport (EFRO)

Arrival

Time 2026-04-28 18:05
Airport Rovaniemi Airport (EFRO)
Time Latitude Longitude Altitude Speed Heading
2026-04-28 16:11 66.57001 25.83206 645 ft 0 kts 262°
2026-04-28 16:17 66.57000 25.83192 646 ft 4 kts 262°
2026-04-28 16:17 66.56975 25.83148 648 ft 6 kts 172°
2026-04-28 16:17 66.56954 25.83164 647 ft 0 kts 157°
2026-04-28 16:18 66.56953 25.83164 647 ft 0 kts 157°
2026-04-28 16:18 66.56941 25.83175 645 ft 6 kts 170°
2026-04-28 16:18 66.56884 25.83092 647 ft 12 kts 219°
2026-04-28 16:18 66.56816 25.82963 650 ft 8 kts 218°
2026-04-28 16:19 66.56762 25.82861 652 ft 9 kts 217°
2026-04-28 16:19 66.56697 25.82739 651 ft 13 kts 215°
2026-04-28 16:19 66.56620 25.82599 647 ft 16 kts 218°
2026-04-28 16:19 66.56539 25.82443 644 ft 12 kts 217°
2026-04-28 16:20 66.56467 25.82305 642 ft 11 kts 218°
2026-04-28 16:20 66.56388 25.82142 637 ft 12 kts 219°
2026-04-28 16:20 66.56303 25.81977 631 ft 21 kts 217°
2026-04-28 16:20 66.56205 25.81792 619 ft 17 kts 218°
2026-04-28 16:21 66.56107 25.81621 604 ft 17 kts 208°
2026-04-28 16:21 66.55987 25.81482 596 ft 17 kts 203°
2026-04-28 16:21 66.55875 25.81455 605 ft 18 kts 148°
2026-04-28 16:21 66.55806 25.81674 612 ft 13 kts 118°
2026-04-28 16:22 66.55847 25.81828 616 ft 20 kts 35°
2026-04-28 16:22 66.56143 25.82392 636 ft 84 kts 26°
2026-04-28 16:22 66.56718 25.83482 855 ft 122 kts 34°
2026-04-28 16:22 66.57433 25.84878 1176 ft 137 kts 33°
2026-04-28 16:23 66.58337 25.85771 1329 ft 151 kts 357°
2026-04-28 16:23 66.59299 25.84574 1517 ft 162 kts 326°
2026-04-28 16:23 66.60155 25.82740 1706 ft 164 kts 324°
2026-04-28 16:23 66.61024 25.80894 1939 ft 165 kts 325°
2026-04-28 16:24 66.61893 25.78951 2153 ft 170 kts 323°
2026-04-28 16:24 66.62757 25.76888 2582 ft 169 kts 321°
2026-04-28 16:24 66.63288 25.75460 2918 ft 169 kts 317°
2026-04-28 16:24 66.64071 25.73383 3625 ft 152 kts 328°
2026-04-28 16:25 66.64913 25.71935 4569 ft 149 kts 332°
2026-04-28 16:25 66.65767 25.70388 5403 ft 153 kts 328°
2026-04-28 16:25 66.66607 25.68692 6249 ft 157 kts 327°
2026-04-28 16:25 66.67506 25.67122 7058 ft 157 kts 340°
2026-04-28 16:26 66.68538 25.66323 7885 ft 155 kts 354°
2026-04-28 16:26 66.69674 25.66316 8379 ft 175 kts
2026-04-28 16:26 66.70945 25.67060 8586 ft 199 kts 13°
2026-04-28 16:26 66.72354 25.67892 8623 ft 215 kts 13°
2026-04-28 16:27 66.73834 25.68751 8714 ft 219 kts 12°
2026-04-28 16:27 66.75303 25.69608 8880 ft 220 kts 13°
2026-04-28 16:27 66.78290 25.71364 9177 ft 222 kts 12°
2026-04-28 16:28 66.79797 25.72250 9341 ft 222 kts 12°
2026-04-28 16:28 66.81312 25.73142 9497 ft 223 kts 12°
2026-04-28 16:28 66.82829 25.74036 9657 ft 224 kts 12°
2026-04-28 16:28 66.84353 25.74935 9817 ft 225 kts 12°
2026-04-28 16:29 66.87421 25.76748 10033 ft 229 kts 12°
2026-04-28 16:29 66.90512 25.78581 10031 ft 225 kts 12°
2026-04-28 16:30 66.92037 25.79487 10032 ft 225 kts 12°
2026-04-28 16:30 66.93558 25.80391 10030 ft 224 kts 12°
2026-04-28 16:30 66.95065 25.81288 10030 ft 225 kts 12°
2026-04-28 16:30 66.96597 25.82201 10030 ft 226 kts 12°
2026-04-28 16:31 66.98128 25.83116 10028 ft 226 kts 12°
2026-04-28 16:31 66.99656 25.84029 10028 ft 226 kts 12°
2026-04-28 16:31 67.01189 25.84947 10029 ft 226 kts 12°
2026-04-28 16:31 67.02725 25.85868 10028 ft 227 kts 12°
2026-04-28 16:32 67.04271 25.86792 10032 ft 230 kts 12°
2026-04-28 16:32 67.07411 25.88681 10038 ft 232 kts 12°
2026-04-28 16:32 67.08986 25.89630 10038 ft 233 kts 12°
2026-04-28 16:33 67.10544 25.90571 10042 ft 233 kts 12°
2026-04-28 16:33 67.11608 25.91213 10042 ft 232 kts 12°
2026-04-28 16:33 67.13694 25.92474 10042 ft 232 kts 12°
2026-04-28 16:33 67.15269 25.93428 10042 ft 232 kts 12°
2026-04-28 16:34 67.16844 25.94383 10043 ft 232 kts 12°
2026-04-28 16:34 67.18419 25.95338 10044 ft 232 kts 12°
2026-04-28 16:34 67.19990 25.96295 10043 ft 232 kts 12°
2026-04-28 16:34 67.21561 25.97253 10049 ft 232 kts 12°
2026-04-28 16:35 67.23136 25.98139 10047 ft 231 kts
2026-04-28 16:35 67.24745 25.98250 10044 ft 232 kts 358°
2026-04-28 16:35 67.26357 25.98130 10046 ft 232 kts 359°
2026-04-28 16:35 67.27975 25.98044 10046 ft 232 kts 359°
2026-04-28 16:36 67.29588 25.97949 10047 ft 232 kts 359°
2026-04-28 16:36 67.31200 25.97847 10048 ft 232 kts 359°
2026-04-28 16:36 67.32792 25.97747 10048 ft 232 kts 359°
2026-04-28 16:36 67.34394 25.97648 10177 ft 229 kts 359°
2026-04-28 16:37 67.35987 25.97548 10249 ft 230 kts 359°
2026-04-28 16:37 67.37599 25.97447 10217 ft 232 kts 359°
2026-04-28 16:37 67.39225 25.97347 10101 ft 236 kts 359°
2026-04-28 16:38 67.42508 25.97140 9763 ft 235 kts 359°
2026-04-28 16:38 67.44139 25.97038 9603 ft 233 kts 359°
2026-04-28 16:38 67.45758 25.96936 9444 ft 232 kts 359°
2026-04-28 16:38 67.47371 25.96836 9309 ft 230 kts 359°
2026-04-28 16:39 67.48944 25.96735 9309 ft 228 kts 359°
2026-04-28 16:39 67.50531 25.96635 9317 ft 228 kts 359°
2026-04-28 16:39 67.52125 25.96534 9316 ft 228 kts 359°
2026-04-28 16:39 67.53713 25.96435 9315 ft 228 kts 359°
2026-04-28 16:40 67.55297 25.96333 9314 ft 228 kts 359°
2026-04-28 16:40 67.56884 25.96233 9315 ft 228 kts 359°
2026-04-28 16:40 67.58470 25.96133 9317 ft 228 kts 359°
2026-04-28 16:40 67.60055 25.96031 9313 ft 228 kts 359°
2026-04-28 16:41 67.61642 25.95930 9313 ft 228 kts 359°
2026-04-28 16:41 67.63228 25.95829 9313 ft 228 kts 359°
2026-04-28 16:41 67.64815 25.95728 9293 ft 227 kts 359°
2026-04-28 16:41 67.66393 25.95627 9309 ft 227 kts 359°
2026-04-28 16:42 67.67969 25.95526 9306 ft 226 kts 359°
2026-04-28 16:42 67.69544 25.95425 9309 ft 227 kts 359°
2026-04-28 16:42 67.71120 25.95323 9308 ft 226 kts 359°
2026-04-28 16:42 67.72694 25.95223 9309 ft 226 kts 359°
2026-04-28 16:43 67.74251 25.95123 9311 ft 226 kts 359°
2026-04-28 16:43 67.75829 25.95019 9311 ft 227 kts 359°
2026-04-28 16:43 67.77405 25.94919 9309 ft 227 kts 359°
2026-04-28 16:43 67.78982 25.94817 9314 ft 227 kts 359°
2026-04-28 16:44 67.80557 25.94715 9317 ft 227 kts 359°
2026-04-28 16:44 67.82136 25.94613 9323 ft 227 kts 359°
2026-04-28 16:44 67.83720 25.94509 9324 ft 227 kts 359°
2026-04-28 16:44 67.85307 25.94407 9322 ft 228 kts 359°
2026-04-28 16:45 67.86890 25.94302 9322 ft 227 kts 359°
2026-04-28 16:45 67.88456 25.94201 9325 ft 228 kts 359°
2026-04-28 16:45 67.90040 25.94098 9322 ft 228 kts 359°
2026-04-28 16:45 67.91626 25.93995 9321 ft 227 kts 359°
2026-04-28 16:46 67.93211 25.93890 9321 ft 228 kts 359°
2026-04-28 16:46 67.94795 25.93786 9321 ft 227 kts 359°
2026-04-28 16:46 67.96377 25.93683 9321 ft 227 kts 359°
2026-04-28 16:46 67.97963 25.93579 9323 ft 228 kts 359°
2026-04-28 16:47 67.99547 25.93474 9321 ft 228 kts 359°
2026-04-28 16:47 68.01130 25.93370 9324 ft 228 kts 359°
2026-04-28 16:47 68.02715 25.93266 9321 ft 228 kts 359°
2026-04-28 16:47 68.04298 25.93161 9324 ft 228 kts 359°
2026-04-28 16:48 68.05884 25.93057 9324 ft 228 kts 359°
2026-04-28 16:48 68.07465 25.92950 9323 ft 228 kts 359°
2026-04-28 16:48 68.09050 25.92845 9329 ft 228 kts 359°
2026-04-28 16:48 68.10612 25.92743 9330 ft 228 kts 359°
2026-04-28 16:49 68.12200 25.92637 9330 ft 228 kts 359°
2026-04-28 16:49 68.13787 25.92530 9331 ft 228 kts 359°
2026-04-28 16:49 68.15372 25.92425 9329 ft 228 kts 359°
2026-04-28 16:49 68.16957 25.92319 9329 ft 228 kts 359°
2026-04-28 16:50 68.18540 25.92213 9340 ft 228 kts 359°
2026-04-28 16:50 68.20127 25.92107 9332 ft 228 kts 359°
2026-04-28 16:50 68.21705 25.92341 9328 ft 228 kts
2026-04-28 16:50 68.23225 25.93555 9326 ft 229 kts 21°
2026-04-28 16:51 68.24606 25.95674 9325 ft 231 kts 33°
2026-04-28 16:51 68.25783 25.98624 9324 ft 235 kts 45°
2026-04-28 16:51 68.26703 26.02372 9321 ft 239 kts 58°
2026-04-28 16:51 68.27262 26.06587 9320 ft 245 kts 72°
2026-04-28 16:52 68.27491 26.11169 9320 ft 247 kts 78°
2026-04-28 16:52 68.27529 26.15820 9317 ft 252 kts 90°
2026-04-28 16:52 68.27115 26.20471 9318 ft 258 kts 105°
2026-04-28 16:52 68.26254 26.24772 9308 ft 264 kts 121°
2026-04-28 16:53 68.24978 26.28383 9311 ft 269 kts 137°
2026-04-28 16:53 68.23359 26.30984 9309 ft 273 kts 154°
2026-04-28 16:53 68.21519 26.32312 9308 ft 276 kts 172°
2026-04-28 16:53 68.19603 26.32563 9313 ft 275 kts 178°
2026-04-28 16:54 68.17686 26.32750 9316 ft 276 kts 177°
2026-04-28 16:54 68.15767 26.32951 9318 ft 276 kts 177°
2026-04-28 16:54 68.13843 26.33147 9319 ft 276 kts 177°
2026-04-28 16:54 68.12571 26.33275 9320 ft 276 kts 177°
2026-04-28 16:55 68.09999 26.33535 9310 ft 277 kts 177°
2026-04-28 16:55 68.08100 26.33727 9310 ft 276 kts 177°
2026-04-28 16:55 68.06179 26.33920 9304 ft 276 kts 177°
2026-04-28 16:55 68.04258 26.34114 9304 ft 276 kts 177°
2026-04-28 16:56 68.02334 26.34307 9304 ft 276 kts 177°
2026-04-28 16:56 68.00413 26.34500 9304 ft 276 kts 177°
2026-04-28 16:56 67.98493 26.34692 9304 ft 276 kts 177°
2026-04-28 16:56 67.96569 26.34885 9304 ft 276 kts 177°
2026-04-28 16:57 67.94649 26.35076 9304 ft 276 kts 177°
2026-04-28 16:57 67.92728 26.35268 9317 ft 276 kts 177°
2026-04-28 16:57 67.90806 26.35459 9319 ft 276 kts 177°
2026-04-28 16:57 67.88891 26.35649 9319 ft 276 kts 177°
2026-04-28 16:58 67.86968 26.35840 9320 ft 276 kts 177°
2026-04-28 16:58 67.85046 26.36030 9319 ft 276 kts 177°
2026-04-28 16:58 67.83126 26.36221 9320 ft 276 kts 177°
2026-04-28 16:58 67.81209 26.36409 9322 ft 276 kts 177°
2026-04-28 16:59 67.79295 26.36598 9322 ft 276 kts 177°
2026-04-28 16:59 67.77376 26.36787 9312 ft 276 kts 177°
2026-04-28 16:59 67.75456 26.36976 9311 ft 276 kts 177°
2026-04-28 16:59 67.73563 26.37161 9301 ft 276 kts 177°
2026-04-28 17:00 67.71645 26.37349 9301 ft 276 kts 177°
2026-04-28 17:00 67.69724 26.37537 9302 ft 276 kts 177°
2026-04-28 17:00 67.67804 26.37724 9301 ft 276 kts 177°
2026-04-28 17:00 67.65883 26.37911 9301 ft 276 kts 177°
2026-04-28 17:01 67.63966 26.38098 9302 ft 276 kts 177°
2026-04-28 17:01 67.62048 26.38285 9302 ft 276 kts 177°
2026-04-28 17:01 67.60129 26.38470 9301 ft 275 kts 177°
2026-04-28 17:01 67.58212 26.38654 9302 ft 276 kts 177°
2026-04-28 17:02 67.56291 26.38841 9302 ft 276 kts 177°
2026-04-28 17:02 67.55022 26.38964 9302 ft 276 kts 177°
2026-04-28 17:02 67.52454 26.39211 9302 ft 276 kts 177°
2026-04-28 17:02 67.50534 26.39396 9297 ft 276 kts 177°
2026-04-28 17:03 67.46690 26.39764 9297 ft 276 kts 177°
2026-04-28 17:03 67.44771 26.39949 9297 ft 276 kts 177°
2026-04-28 17:03 67.42873 26.40129 9297 ft 276 kts 177°
2026-04-28 17:04 67.39035 26.40495 9297 ft 276 kts 177°
2026-04-28 17:04 67.37115 26.40679 9287 ft 276 kts 177°
2026-04-28 17:05 67.33276 26.41042 9292 ft 276 kts 177°
2026-04-28 17:05 67.31363 26.40974 9292 ft 276 kts 188°
2026-04-28 17:05 67.29528 26.39610 9289 ft 275 kts 205°
2026-04-28 17:06 67.26648 26.33479 9290 ft 267 kts 239°
2026-04-28 17:06 67.25804 26.29268 9289 ft 261 kts 255°
2026-04-28 17:06 67.25041 26.20278 9298 ft 258 kts 264°
2026-04-28 17:07 67.24819 26.15728 9294 ft 253 kts 276°
2026-04-28 17:07 67.25041 26.11295 9293 ft 247 kts 290°
2026-04-28 17:07 67.25660 26.07221 9294 ft 241 kts 303°
2026-04-28 17:07 67.26616 26.03726 9298 ft 237 kts 316°
2026-04-28 17:08 67.27846 26.00945 9300 ft 233 kts 329°
2026-04-28 17:08 67.29267 25.99013 9299 ft 230 kts 341°
2026-04-28 17:08 67.30804 25.97983 9298 ft 228 kts 353°
2026-04-28 17:08 67.32385 25.97783 9299 ft 227 kts 360°
2026-04-28 17:09 67.33969 25.97686 9301 ft 227 kts 359°
2026-04-28 17:09 67.35553 25.97575 9302 ft 227 kts 359°
2026-04-28 17:09 67.37138 25.97473 9302 ft 227 kts 359°
2026-04-28 17:09 67.38720 25.97378 9302 ft 228 kts 359°
2026-04-28 17:10 67.40305 25.97279 9302 ft 228 kts 359°
2026-04-28 17:10 67.41887 25.97180 9303 ft 228 kts 359°
2026-04-28 17:10 67.43450 25.97081 9303 ft 228 kts 359°
2026-04-28 17:10 67.45033 25.96982 9312 ft 228 kts 359°
2026-04-28 17:11 67.46620 25.96882 9314 ft 228 kts 359°
2026-04-28 17:11 67.48205 25.96782 9314 ft 228 kts 359°
2026-04-28 17:11 67.49795 25.96682 9315 ft 228 kts 359°
2026-04-28 17:11 67.51379 25.96582 9323 ft 228 kts 359°
2026-04-28 17:12 67.52968 25.96482 9322 ft 228 kts 359°
2026-04-28 17:12 67.54554 25.96381 9322 ft 228 kts 359°
2026-04-28 17:12 67.55604 25.96314 9322 ft 228 kts 359°
2026-04-28 17:12 67.57188 25.96214 9322 ft 228 kts 359°
2026-04-28 17:13 67.58775 25.96113 9323 ft 228 kts 359°
2026-04-28 17:13 67.60362 25.96011 9320 ft 228 kts 359°
2026-04-28 17:13 67.61947 25.95911 9320 ft 228 kts 359°
2026-04-28 17:13 67.63531 25.95810 9319 ft 228 kts 359°
2026-04-28 17:14 67.65116 25.95709 9305 ft 227 kts 359°
2026-04-28 17:14 67.66692 25.95608 9308 ft 227 kts 359°
2026-04-28 17:14 67.68272 25.95506 9308 ft 226 kts 359°
2026-04-28 17:14 67.69850 25.95405 9309 ft 226 kts 359°
2026-04-28 17:15 67.71426 25.95304 9307 ft 226 kts 359°
2026-04-28 17:15 67.73000 25.95203 9311 ft 227 kts 359°
2026-04-28 17:15 67.74577 25.95102 9307 ft 227 kts 359°
2026-04-28 17:15 67.76153 25.94999 9307 ft 226 kts 359°
2026-04-28 17:16 67.77730 25.94897 9311 ft 226 kts 359°
2026-04-28 17:16 67.79303 25.94797 9316 ft 226 kts 359°
2026-04-28 17:16 67.80881 25.94694 9318 ft 227 kts 359°
2026-04-28 17:16 67.82459 25.94592 9321 ft 227 kts 359°
2026-04-28 17:17 67.84041 25.94489 9327 ft 227 kts 359°
2026-04-28 17:17 67.85603 25.94387 9325 ft 228 kts 359°
2026-04-28 17:17 67.87186 25.94284 9324 ft 227 kts 359°
2026-04-28 17:17 67.88768 25.94181 9325 ft 228 kts 359°
2026-04-28 17:18 67.90351 25.94077 9322 ft 227 kts 359°
2026-04-28 17:18 67.91934 25.93974 9320 ft 227 kts 359°
2026-04-28 17:18 67.93519 25.93871 9319 ft 227 kts 359°
2026-04-28 17:18 67.95100 25.93767 9320 ft 228 kts 359°
2026-04-28 17:19 67.96684 25.93660 9320 ft 228 kts 359°
2026-04-28 17:19 67.98270 25.93557 9322 ft 228 kts 359°
2026-04-28 17:19 67.99857 25.93454 9321 ft 228 kts 359°
2026-04-28 17:19 68.01442 25.93349 9322 ft 228 kts 359°
2026-04-28 17:20 68.03006 25.93247 9324 ft 228 kts 359°
2026-04-28 17:20 68.04077 25.93175 9322 ft 228 kts 359°
2026-04-28 17:20 68.06173 25.93037 9325 ft 228 kts 359°
2026-04-28 17:20 68.07756 25.92931 9332 ft 228 kts 359°
2026-04-28 17:21 68.09346 25.92826 9331 ft 228 kts 359°
2026-04-28 17:21 68.10930 25.92722 9332 ft 228 kts 359°
2026-04-28 17:21 68.12516 25.92616 9330 ft 228 kts 359°
2026-04-28 17:22 68.15684 25.92404 9330 ft 228 kts 359°
2026-04-28 17:22 68.17266 25.92298 9331 ft 228 kts 359°
2026-04-28 17:22 68.18851 25.92193 9338 ft 228 kts 359°
2026-04-28 17:23 68.21991 25.92495 9328 ft 228 kts 11°
2026-04-28 17:23 68.23494 25.93881 9326 ft 229 kts 23°
2026-04-28 17:23 68.24849 25.96176 9324 ft 232 kts 35°
2026-04-28 17:23 68.25986 25.99297 9322 ft 235 kts 48°
2026-04-28 17:24 68.26833 26.03113 9321 ft 240 kts 61°
2026-04-28 17:24 68.27328 26.07458 9318 ft 246 kts 74°
2026-04-28 17:24 68.27524 26.12054 9319 ft 247 kts 79°
2026-04-28 17:24 68.27484 26.16724 9318 ft 253 kts 93°
2026-04-28 17:25 68.26986 26.21321 9310 ft 259 kts 108°
2026-04-28 17:25 68.24688 26.28975 9310 ft 270 kts 141°
2026-04-28 17:25 68.23015 26.31348 9308 ft 274 kts 158°
2026-04-28 17:26 68.21148 26.32409 9308 ft 276 kts 175°
2026-04-28 17:26 68.19233 26.32595 9315 ft 276 kts 178°
2026-04-28 17:26 68.17313 26.32787 9317 ft 276 kts 177°
2026-04-28 17:26 68.15419 26.32987 9318 ft 276 kts 177°
2026-04-28 17:27 68.13501 26.33182 9319 ft 276 kts 177°
2026-04-28 17:27 68.11582 26.33375 9319 ft 276 kts 177°
2026-04-28 17:27 68.09659 26.33569 9309 ft 277 kts 177°
2026-04-28 17:27 68.07740 26.33764 9312 ft 276 kts 177°
2026-04-28 17:28 68.05816 26.33956 9307 ft 276 kts 177°
2026-04-28 17:28 68.01970 26.34343 9307 ft 276 kts 177°
2026-04-28 17:28 68.00047 26.34537 9307 ft 276 kts 177°
2026-04-28 17:29 67.98124 26.34729 9307 ft 276 kts 177°
2026-04-28 17:29 67.96204 26.34921 9307 ft 276 kts 177°
2026-04-28 17:29 67.94277 26.35114 9307 ft 276 kts 177°
2026-04-28 17:30 67.90456 26.35495 9321 ft 276 kts 177°
2026-04-28 17:30 67.86613 26.35875 9322 ft 276 kts 177°
2026-04-28 17:30 67.84689 26.36066 9320 ft 276 kts 177°
2026-04-28 17:31 67.82767 26.36257 9319 ft 276 kts 177°
2026-04-28 17:31 67.78933 26.36633 9322 ft 276 kts 177°
2026-04-28 17:32 67.75099 26.37011 9311 ft 276 kts 177°
2026-04-28 17:32 67.73204 26.37197 9301 ft 276 kts 177°
2026-04-28 17:32 67.71289 26.37384 9301 ft 276 kts 177°
2026-04-28 17:32 67.69369 26.37572 9302 ft 276 kts 177°
2026-04-28 17:33 67.67444 26.37759 9301 ft 276 kts 177°
2026-04-28 17:33 67.65528 26.37946 9302 ft 276 kts 177°
2026-04-28 17:33 67.63604 26.38133 9302 ft 276 kts 177°
2026-04-28 17:33 67.62332 26.38257 9303 ft 276 kts 177°
2026-04-28 17:34 67.59780 26.38504 9301 ft 276 kts 177°
2026-04-28 17:34 67.57865 26.38689 9301 ft 276 kts 177°
2026-04-28 17:34 67.55950 26.38874 9301 ft 276 kts 177°
2026-04-28 17:34 67.54027 26.39059 9303 ft 276 kts 177°
2026-04-28 17:35 67.52105 26.39245 9301 ft 276 kts 177°
2026-04-28 17:35 67.50187 26.39429 9297 ft 276 kts 177°
2026-04-28 17:35 67.48265 26.39612 9297 ft 276 kts 177°
2026-04-28 17:35 67.46346 26.39797 9297 ft 276 kts 177°
2026-04-28 17:36 67.44422 26.39981 9297 ft 276 kts 177°
2026-04-28 17:36 67.42502 26.40166 9297 ft 276 kts 177°
2026-04-28 17:36 67.40586 26.40347 9297 ft 276 kts 177°
2026-04-28 17:36 67.38667 26.40530 9297 ft 276 kts 177°
2026-04-28 17:37 67.36749 26.40713 9290 ft 276 kts 177°
2026-04-28 17:37 67.34827 26.40896 9291 ft 275 kts 176°
2026-04-28 17:37 67.32998 26.42050 9285 ft 271 kts 148°
2026-04-28 17:37 67.31745 26.45460 9288 ft 259 kts 110°
2026-04-28 17:38 67.31520 26.49814 9290 ft 243 kts 73°
2026-04-28 17:38 67.32328 26.53362 9291 ft 225 kts 36°
2026-04-28 17:38 67.33743 26.54854 9296 ft 219 kts 12°
2026-04-28 17:38 67.35228 26.55740 9306 ft 220 kts 14°
2026-04-28 17:39 67.36670 26.57106 9306 ft 221 kts 23°
2026-04-28 17:39 67.38015 26.59089 9308 ft 222 kts 29°
2026-04-28 17:39 67.40556 26.63684 9300 ft 226 kts 44°
2026-04-28 17:40 67.41328 26.67279 9300 ft 234 kts 67°
2026-04-28 17:40 67.41460 26.71498 9288 ft 243 kts 92°
2026-04-28 17:40 67.40842 26.75672 9284 ft 254 kts 119°
2026-04-28 17:40 67.39519 26.78772 9281 ft 263 kts 148°
2026-04-28 17:41 67.37740 26.79936 9279 ft 268 kts 179°
2026-04-28 17:41 67.35951 26.78760 9281 ft 266 kts 209°
2026-04-28 17:41 67.34351 26.76349 9291 ft 265 kts 214°
2026-04-28 17:41 67.32787 26.73810 9297 ft 266 kts 214°
2026-04-28 17:42 67.31210 26.71311 9294 ft 266 kts 213°
2026-04-28 17:42 67.30137 26.69650 9296 ft 266 kts 213°
2026-04-28 17:42 67.28028 26.66388 9297 ft 267 kts 213°
2026-04-28 17:42 67.26436 26.63912 9299 ft 267 kts 213°
2026-04-28 17:43 67.24847 26.61444 9297 ft 266 kts 213°
2026-04-28 17:43 67.23403 26.58550 9278 ft 261 kts 235°
2026-04-28 17:43 67.22652 26.54425 9282 ft 250 kts 263°
2026-04-28 17:43 67.22686 26.50065 9283 ft 239 kts 290°
2026-04-28 17:44 67.23408 26.46328 9281 ft 229 kts 314°
2026-04-28 17:44 67.24616 26.43793 9283 ft 222 kts 336°
2026-04-28 17:44 67.26064 26.42750 9294 ft 219 kts 356°
2026-04-28 17:44 67.27568 26.43273 9293 ft 221 kts 18°
2026-04-28 17:45 67.28929 26.45129 9296 ft 222 kts 28°
2026-04-28 17:45 67.30256 26.47193 9307 ft 222 kts 28°
2026-04-28 17:45 67.31585 26.49251 9305 ft 223 kts 28°
2026-04-28 17:45 67.32920 26.51318 9307 ft 223 kts 28°
2026-04-28 17:46 67.34252 26.53382 9307 ft 223 kts 28°
2026-04-28 17:46 67.35586 26.55452 9305 ft 224 kts 28°
2026-04-28 17:46 67.36921 26.57527 9306 ft 224 kts 28°
2026-04-28 17:46 67.38261 26.59611 9305 ft 224 kts 28°
2026-04-28 17:47 67.39596 26.61694 9305 ft 223 kts 28°
2026-04-28 17:47 67.40764 26.64360 9294 ft 229 kts 50°
2026-04-28 17:47 67.41418 26.68183 9296 ft 237 kts 73°
2026-04-28 17:47 67.41480 26.71051 9289 ft 244 kts 89°
2026-04-28 17:48 67.40598 26.76507 9281 ft 258 kts 125°
2026-04-28 17:48 67.39129 26.79246 9281 ft 266 kts 155°
2026-04-28 17:48 67.37294 26.79864 9283 ft 270 kts 187°
2026-04-28 17:48 67.35550 26.78201 9287 ft 267 kts 211°
2026-04-28 17:49 67.33960 26.75720 9295 ft 267 kts 214°
2026-04-28 17:49 67.32382 26.73160 9300 ft 267 kts 214°
2026-04-28 17:49 67.30791 26.70659 9294 ft 268 kts 213°
2026-04-28 17:49 67.29188 26.68186 9297 ft 268 kts 213°
2026-04-28 17:50 67.27580 26.65726 9298 ft 268 kts 213°
2026-04-28 17:50 67.26050 26.63097 9296 ft 267 kts 218°
2026-04-28 17:50 67.24537 26.60294 9296 ft 267 kts 218°
2026-04-28 17:50 67.22992 26.57588 9122 ft 271 kts 216°
2026-04-28 17:51 67.21430 26.54937 8820 ft 266 kts 216°
2026-04-28 17:51 67.19895 26.52305 8520 ft 264 kts 216°
2026-04-28 17:51 67.18376 26.49681 8223 ft 263 kts 216°
2026-04-28 17:51 67.16857 26.47065 7929 ft 262 kts 216°
2026-04-28 17:52 67.15345 26.44472 7642 ft 261 kts 216°
2026-04-28 17:52 67.13838 26.41890 7354 ft 260 kts 216°
2026-04-28 17:52 67.10839 26.36762 6787 ft 258 kts 216°
2026-04-28 17:53 67.09347 26.34217 6490 ft 257 kts 216°
2026-04-28 17:53 67.07879 26.31719 6190 ft 255 kts 216°
2026-04-28 17:53 67.06408 26.29216 5890 ft 252 kts 216°
2026-04-28 17:53 67.04948 26.26735 5594 ft 252 kts 216°
2026-04-28 17:54 67.03488 26.24260 5293 ft 251 kts 216°
2026-04-28 17:54 67.02038 26.21804 5000 ft 250 kts 216°
2026-04-28 17:54 67.00586 26.19349 4697 ft 249 kts 216°
2026-04-28 17:54 66.99146 26.16919 4399 ft 248 kts 216°
2026-04-28 17:55 66.97709 26.14496 4103 ft 247 kts 216°
2026-04-28 17:55 66.96276 26.12081 3809 ft 246 kts 216°
2026-04-28 17:55 66.94852 26.09690 3515 ft 245 kts 216°
2026-04-28 17:55 66.93430 26.07302 3215 ft 244 kts 216°
2026-04-28 17:56 66.92012 26.04924 2929 ft 243 kts 216°
2026-04-28 17:56 66.90602 26.02564 2623 ft 241 kts 216°
2026-04-28 17:56 66.89199 26.00220 2327 ft 241 kts 216°
2026-04-28 17:56 66.87813 25.97906 2056 ft 240 kts 216°
2026-04-28 17:57 66.86435 25.95609 2029 ft 238 kts 216°
2026-04-28 17:57 66.85036 25.93278 2031 ft 241 kts 215°
2026-04-28 17:57 66.83631 25.90942 2033 ft 242 kts 216°
2026-04-28 17:57 66.82243 25.88640 2022 ft 230 kts 216°
2026-04-28 17:58 66.81356 25.87174 2019 ft 221 kts 216°
2026-04-28 17:58 66.80086 25.85069 2011 ft 215 kts 216°
2026-04-28 17:58 66.78848 25.83021 2004 ft 216 kts 217°
2026-04-28 17:58 66.77609 25.80970 2000 ft 211 kts 216°
2026-04-28 17:59 66.76383 25.78946 2002 ft 210 kts 216°
2026-04-28 17:59 66.75156 25.76840 2000 ft 214 kts 221°
2026-04-28 17:59 66.74112 25.74276 1895 ft 203 kts 236°
2026-04-28 17:59 66.73380 25.71292 1659 ft 198 kts 249°
2026-04-28 18:00 66.72733 25.68213 1452 ft 197 kts 244°
2026-04-28 18:00 66.71696 25.65934 1285 ft 204 kts 206°
2026-04-28 18:00 66.70311 25.65332 1176 ft 204 kts 178°
2026-04-28 18:00 66.68908 25.65449 1151 ft 202 kts 178°
2026-04-28 18:01 66.67494 25.65650 1170 ft 205 kts 175°
2026-04-28 18:01 66.66072 25.65928 1138 ft 206 kts 175°
2026-04-28 18:01 66.64642 25.66277 1066 ft 206 kts 173°
2026-04-28 18:01 66.63208 25.66612 1087 ft 205 kts 178°
2026-04-28 18:02 66.61804 25.66038 1131 ft 206 kts 194°
2026-04-28 18:02 66.60405 25.65253 1137 ft 207 kts 193°
2026-04-28 18:02 66.58972 25.64521 1096 ft 211 kts 189°
2026-04-28 18:02 66.57553 25.65022 1131 ft 207 kts 153°
2026-04-28 18:03 66.56440 25.67043 1174 ft 195 kts 130°
2026-04-28 18:03 66.55556 25.69429 1121 ft 178 kts 126°
2026-04-28 18:03 66.54796 25.71647 1126 ft 153 kts 124°
2026-04-28 18:03 66.54256 25.73743 1095 ft 138 kts 96°
2026-04-28 18:04 66.54027 25.76017 936 ft 131 kts 93°
2026-04-28 18:04 66.54024 25.78041 902 ft 105 kts 60°
2026-04-28 18:04 66.54438 25.79382 831 ft 100 kts 29°
2026-04-28 18:04 66.55037 25.80305 767 ft 97 kts 30°
2026-04-28 18:05 66.55548 25.81260 628 ft 88 kts 30°
2026-04-28 18:05 66.55847 25.81832 619 ft 73 kts 32°
2026-04-28 18:05 66.56187 25.82474 627 ft 21 kts 38°
2026-04-28 18:05 66.56288 25.82572 633 ft 16 kts 326°
2026-04-28 18:06 66.56350 25.82359 635 ft 15 kts 303°
2026-04-28 18:06 66.56451 25.82278 639 ft 15 kts 38°
2026-04-28 18:06 66.56522 25.82409 642 ft 12 kts 37°
2026-04-28 18:06 66.56591 25.82538 644 ft 14 kts 37°
2026-04-28 18:07 66.56669 25.82691 649 ft 13 kts 38°
2026-04-28 18:07 66.56748 25.82829 652 ft 15 kts 39°
2026-04-28 18:07 66.56836 25.83001 651 ft 12 kts 37°
2026-04-28 18:07 66.56907 25.83130 647 ft 11 kts 34°
2026-04-28 18:08 66.56964 25.83264 645 ft 9 kts 34°
2026-04-28 18:08 66.57003 25.83243 644 ft 5 kts 265°
2026-04-28 18:08 66.57000 25.83191 646 ft 0 kts 262°